Location: Unspecified
(0.0000°N, 0.0000°E)
Time: 04:15:27
(UTC+00:00)

Vanguard 1 - Pass Details

Date: 14 December 2023
Orbit: 653 x 3826 km, 34.3° (Epoch: 22 February)

Event Time Altitude Azimuth Distance (km) Brightness Sun altitude
Rises 17:36:00 0° 322° (NW) 5,445 14.1 4.3°
Reaches altitude 10° 17:42:39 10° 347° (NNW) 5,168 13.7 2.8°
Maximum altitude 17:49:31 14° 13° (NNE) 5,490 13.5 1.2°
Drops below altitude 10° 17:57:49 10° 39° (NE) 6,392 13.7 -0.7°
Enters shadow 18:06:44 - 58° (ENE) 7,601 13.9 -2.8°
Sets 18:08:42 0° 61° (ENE) 7,874 - -3.2°
